TimeCDT,TemperatureF,Dew PointF,Humidity,Sea Level PressureIn,VisibilityMPH,Wind Direction,Wind SpeedMPH,Gust SpeedMPH,PrecipitationIn,Events,Conditions,WindDirDegrees,DateUTC
12:15 AM,52.0,49.6,92,29.98,10.0,NE,3.5,-,N/A,Rain,Light Rain,40,2013-10-04 05:15:00
12:35 AM,51.8,49.6,92,29.98,10.0,NE,5.8,-,N/A,Rain,Light Rain,40,2013-10-04 05:35:00
12:55 AM,51.8,49.6,92,29.98,10.0,NE,4.6,-,N/A,,Light Drizzle,50,2013-10-04 05:55:00
1:15 AM,51.8,49.6,92,29.99,10.0,Calm,Calm,-,N/A,Rain,Light Rain,0,2013-10-04 06:15:00
1:35 AM,51.8,50.0,94,30.00,7.0,NNE,4.6,-,0.01,Rain,Rain,30,2013-10-04 06:35:00
1:55 AM,51.8,50.0,94,30.00,7.0,NE,5.8,-,0.04,Rain,Rain,40,2013-10-04 06:55:00
2:15 AM,51.8,50.0,94,30.00,10.0,NE,4.6,-,N/A,Rain,Light Rain,50,2013-10-04 07:15:00
2:35 AM,51.8,50.0,94,30.01,10.0,NNE,4.6,-,N/A,,Light Drizzle,20,2013-10-04 07:35:00
2:55 AM,51.8,50.0,94,30.00,7.0,NNE,5.8,-,N/A,Rain,Light Rain,20,2013-10-04 07:55:00
3:15 AM,51.8,50.0,94,29.99,10.0,NE,8.1,-,N/A,,Light Drizzle,50,2013-10-04 08:15:00
3:35 AM,51.8,50.0,94,30.00,10.0,NE,5.8,-,N/A,,Overcast,50,2013-10-04 08:35:00
3:55 AM,51.8,49.6,92,30.01,10.0,NE,5.8,-,N/A,,Overcast,50,2013-10-04 08:55:00
4:15 AM,51.8,49.6,92,30.02,10.0,NNE,4.6,-,N/A,,Overcast,20,2013-10-04 09:15:00
4:35 AM,51.8,49.6,92,30.02,10.0,NE,6.9,-,N/A,,Overcast,40,2013-10-04 09:35:00
4:55 AM,51.8,49.6,92,30.01,10.0,NE,6.9,-,N/A,,Overcast,50,2013-10-04 09:55:00
5:15 AM,51.8,49.5,92,30.02,10.0,ENE,5.8,-,N/A,,Overcast,60,2013-10-04 10:15:00
5:35 AM,51.8,49.5,92,30.02,10.0,ENE,5.8,-,N/A,,Overcast,70,2013-10-04 10:35:00
5:55 AM,51.8,49.5,92,30.02,10.0,ENE,8.1,-,N/A,,Overcast,70,2013-10-04 10:55:00
6:15 AM,51.8,49.5,92,30.03,10.0,ENE,4.6,-,N/A,,Overcast,70,2013-10-04 11:15:00
6:35 AM,51.8,49.5,92,30.03,10.0,ENE,8.1,-,N/A,,Overcast,60,2013-10-04 11:35:00
6:55 AM,51.8,49.3,91,30.04,10.0,ENE,4.6,-,N/A,,Overcast,60,2013-10-04 11:55:00
7:15 AM,51.8,49.3,91,30.04,10.0,Calm,Calm,-,N/A,,Overcast,0,2013-10-04 12:15:00
7:35 AM,51.8,49.1,90,30.04,10.0,ENE,6.9,-,N/A,,Overcast,60,2013-10-04 12:35:00
7:55 AM,52.0,49.1,90,30.05,10.0,Calm,Calm,-,N/A,,Overcast,0,2013-10-04 12:55:00
8:15 AM,53.1,50.0,89,30.05,10.0,ENE,6.9,-,N/A,,Overcast,60,2013-10-04 13:15:00
8:35 AM,53.1,49.6,88,30.05,10.0,ENE,5.8,-,N/A,,Overcast,60,2013-10-04 13:35:00
8:55 AM,54.0,50.2,87,30.06,10.0,NE,5.8,-,N/A,,Overcast,50,2013-10-04 13:55:00
9:15 AM,54.5,50.5,86,30.06,10.0,NE,6.9,-,N/A,,Overcast,50,2013-10-04 14:15:00
9:35 AM,54.5,50.2,85,30.06,10.0,ENE,5.8,-,N/A,,Overcast,60,2013-10-04 14:35:00
9:55 AM,54.5,50.0,85,30.07,10.0,NE,5.8,-,N/A,,Overcast,50,2013-10-04 14:55:00
10:15 AM,56.8,51.8,83,30.06,10.0,NE,6.9,-,N/A,,Overcast,50,2013-10-04 15:15:00
10:35 AM,56.8,50.9,80,30.06,10.0,NE,11.5,16.1,N/A,,Overcast,50,2013-10-04 15:35:00
10:55 AM,56.8,50.9,80,30.07,10.0,ENE,6.9,16.1,N/A,,Overcast,60,2013-10-04 15:55:00
11:15 AM,56.8,50.9,80,30.06,10.0,ENE,10.4,16.1,N/A,,Overcast,60,2013-10-04 16:15:00
11:35 AM,56.8,50.7,80,30.07,10.0,ENE,8.1,-,N/A,,Overcast,60,2013-10-04 16:35:00
11:55 AM,56.8,50.4,79,30.08,10.0,ENE,4.6,-,N/A,,Overcast,60,2013-10-04 16:55:00
12:15 PM,56.8,50.4,79,30.08,10.0,East,5.8,17.3,N/A,,Overcast,80,2013-10-04 17:15:00
12:35 PM,56.8,50.7,80,30.08,10.0,ENE,5.8,-,N/A,,Overcast,60,2013-10-04 17:35:00
12:55 PM,56.8,50.7,80,30.07,10.0,East,8.1,-,N/A,,Overcast,80,2013-10-04 17:55:00
1:15 PM,56.8,50.4,79,30.07,7.0,East,10.4,-,N/A,,Overcast,90,2013-10-04 18:15:00
1:35 PM,56.8,50.2,78,30.08,10.0,East,4.6,-,N/A,,Overcast,90,2013-10-04 18:35:00
1:55 PM,56.8,50.5,79,30.06,10.0,ENE,4.6,-,N/A,,Overcast,70,2013-10-04 18:55:00
2:15 PM,58.1,51.3,78,30.06,10.0,East,6.9,-,N/A,,Overcast,80,2013-10-04 19:15:00
2:35 PM,58.3,51.6,78,30.06,10.0,East,5.8,-,N/A,,Overcast,80,2013-10-04 19:35:00
2:55 PM,58.5,51.6,78,30.05,10.0,East,8.1,-,N/A,,Overcast,80,2013-10-04 19:55:00
3:15 PM,59.4,51.8,76,30.05,10.0,East,6.9,-,N/A,,Overcast,80,2013-10-04 20:15:00
3:35 PM,59.4,51.8,76,30.04,10.0,East,3.5,-,N/A,,Overcast,90,2013-10-04 20:35:00
3:55 PM,59.4,51.4,75,30.04,10.0,East,6.9,-,N/A,,Overcast,80,2013-10-04 20:55:00
4:15 PM,59.4,51.8,76,30.05,10.0,ENE,8.1,-,N/A,,Overcast,70,2013-10-04 21:15:00
4:35 PM,59.4,52.2,77,30.06,10.0,East,4.6,-,N/A,,Overcast,100,2013-10-04 21:35:00
4:55 PM,56.8,52.0,84,30.07,5.0,East,3.5,-,N/A,,Heavy Drizzle,100,2013-10-04 21:55:00
5:15 PM,56.8,53.8,89,30.07,7.0,ESE,3.5,-,N/A,,Drizzle,110,2013-10-04 22:15:00
5:35 PM,56.8,54.5,92,30.08,4.0,East,4.6,-,N/A,Rain,Light Rain,100,2013-10-04 22:35:00
5:55 PM,56.8,54.7,92,30.08,5.0,East,3.5,-,N/A,,Drizzle,90,2013-10-04 22:55:00
6:15 PM,56.8,54.7,92,30.08,5.0,East,4.6,-,N/A,,Drizzle,100,2013-10-04 23:15:00
6:35 PM,56.7,54.7,93,30.07,7.0,ENE,6.9,-,N/A,Rain,Light Rain,70,2013-10-04 23:35:00
6:55 PM,54.5,52.0,91,30.08,7.0,East,5.8,-,N/A,Rain,Rain,80,2013-10-04 23:55:00
7:15 PM,54.5,51.8,91,30.07,10.0,East,5.8,-,N/A,,Light Drizzle,80,2013-10-05 00:15:00
7:35 PM,54.5,52.0,91,30.07,10.0,East,5.8,-,N/A,,Overcast,90,2013-10-05 00:35:00
7:55 PM,54.5,52.0,91,30.07,5.0,East,6.9,-,N/A,,Overcast,80,2013-10-05 00:55:00
8:15 PM,54.5,52.2,92,30.07,4.0,ENE,4.6,-,N/A,,Overcast,70,2013-10-05 01:15:00
8:35 PM,54.5,52.2,92,30.08,4.0,East,3.5,-,N/A,,Overcast,90,2013-10-05 01:35:00
8:55 PM,54.0,51.8,92,30.08,5.0,East,6.9,-,N/A,,Overcast,80,2013-10-05 01:55:00
9:15 PM,53.1,50.9,92,30.07,10.0,East,10.4,-,N/A,,Overcast,90,2013-10-05 02:15:00
9:35 PM,53.1,50.9,92,30.06,10.0,East,6.9,-,N/A,,Overcast,80,2013-10-05 02:35:00
9:55 PM,53.1,50.5,91,30.07,10.0,ENE,5.8,-,N/A,,Overcast,70,2013-10-05 02:55:00
10:15 PM,53.1,50.5,91,30.08,10.0,East,5.8,-,N/A,,Overcast,80,2013-10-05 03:15:00
10:35 PM,53.1,50.5,91,30.07,10.0,East,5.8,-,N/A,,Overcast,80,2013-10-05 03:35:00
10:55 PM,52.3,49.6,91,30.08,10.0,East,4.6,-,N/A,,Overcast,90,2013-10-05 03:55:00
11:15 PM,52.3,49.5,90,30.09,10.0,ESE,5.8,-,N/A,,Overcast,110,2013-10-05 04:15:00
11:35 PM,52.0,49.5,91,30.09,10.0,East,6.9,-,N/A,Rain,Rain,100,2013-10-05 04:35:00
11:55 PM,51.8,49.5,92,30.07,10.0,East,6.9,-,N/A,,Light Drizzle,100,2013-10-05 04:55:00